Regional Weather Roundup
Issued by NWS

Home | Current Version | Previous Version | Graphics & Text | Print | Product List | Glossary On
Versions: 1 2 3 4 5 6 7 8 9 10 11 12 13 14 15 16 17 18 19 20 21 22 23 24 25 26 27 28 29 30 31 32 33 34 35 36 37 38 39 40 41 42 43 44 45 46 47 48 49 50
905
ASUS45 KBOU 141607
RWRCO

WEATHER ROUNDUP FOR COLORADO
NATIONAL WEATHER SERVICE DENVER/BOULDER CO
900 AM MST SUN FEB 14 2016

NOTE: "FAIR" INDICATES FEW OR NO CLOUDS BELOW 12000 FEET WITH NO
SIGNIFICANT WEATHER AND/OR OBSTRUCTIONS TO VISIBILITY.

COZ001>005-013-030-031-141700-
...NORTHWEST COLORADO...

CITY           SKY/WX    TMP DP  RH WIND       PRES   REMARKS
CRAIG          CLOUDY    19  14  81 N3        30.11F
HAYDEN         CLOUDY    21  16  79 E9        30.09F WCI  11
MEEKER         CLOUDY    24  16  71 SE3       30.12F
MOUNT WERNER   NOT AVBL
STEAMBOAT SPGS CLOUDY    21  16  81 W3        30.11F
WALDEN         CLOUDY    32  14  47 S8        30.06S WCI  25
$$

COZ006>008-011-141700-
...WEST CENTRAL VALLEYS...

CITY           SKY/WX    TMP DP  RH WIND       PRES   REMARKS
GRAND JUNCTION PTSUNNY   32  27  81 CALM      30.18R
MONTROSE       FAIR      32  23  69 CALM      30.19R
EAGLE          CLOUDY    23  18  80 CALM      30.20R
RIFLE          FAIR      25  19  78 CALM      30.19F
DELTA          FAIR      33  28  80 CALM      30.20S
NUCLA          FAIR      30  23  74 E3        30.22F
$$

COZ017>023-064>068-141700-
...SOUTHWEST COLORADO...

CITY           SKY/WX    TMP DP  RH WIND       PRES   REMARKS
DURANGO        FAIR      26  14  60 CALM      30.15S
CORTEZ         FAIR      30  22  72 SE6       30.18R WCI  24
PAGOSA SPRINGS FAIR      27  10  47 CALM      30.16F
TELLURIDE      NOT AVBL
WOLF CREEK PAS FAIR      28 -13  16 W15       30.24F WCI  17
$$

COZ009-010-012-014-032>034-037-058>063-141700-
...CENTRAL COLORADO...

CITY           SKY/WX    TMP DP  RH WIND       PRES   REMARKS
ASPEN          PTSUNNY   28  16  60 N3        30.16R
BUENA VISTA    FAIR      42   7  24 W16       30.02F
COPPER MTN     PTSUNNY   23  10  58 W30G36    30.10S WCI   5
BERTHOUD PASS  CLOUDY    16   5  62 NW36G49   30.07R WCI  -6
COTTONWOOD PAS FAIR      36   3  25 NW15G29   30.03F
GUNNISON       FAIR       0 N/A N/A S7        30.25R WCI -13
KREMMLING      CLOUDY    19  10  68 CALM      30.13R
LEADVILLE      FAIR      27   6  41 N12G17    30.10F WCI  17
MONARCH PASS   FAIR      19   9  63 W32       30.23F WCI   0
SALIDA         NOT AVBL
SUNLIGHT       FAIR      27  14  59 SW3         N/A
WILKERSON PASS FAIR      27   5  39 W20G32    30.03R WCI  13
$$

COZ069>075-141700-
...SAN LUIS VALLEY/SANGRE DE CRISTO MOUNTAINS...

CITY           SKY/WX    TMP DP  RH WIND       PRES   REMARKS
ALAMOSA        FAIR      27  20  75 NE6       30.13R WCI  20
LA VETA PASS   FAIR      30   5  34 S15G23    30.05S WCI  19
SAGUACHE       FAIR      32  12  43 NW15      30.11F WCI  22
$$

COZ035-036-038>040-141700-
...NORTHERN COLORADO FRONT RANGE...

CITY           SKY/WX    TMP DP  RH WIND       PRES   REMARKS
DENVER INTL AP PTSUNNY   42  19  39 SW17      29.85F
DMNS CITY PARK   N/A     40  20  44 SE8G20    29.86F
AURORA         PTSUNNY   45  19  35 S12       29.87F
FRONT RANGE AP PTSUNNY   41  19  42 SW14G21   29.86F
ERIE MUNI ARPT FAIR      47  18  30 NW3       29.85F
BOULDER MUN AP FAIR      46  19  34 SE8       29.82F
CENTENNIAL     PTSUNNY   36  22  56 VRB5G17   29.89F
BROOMFIELD     PTSUNNY   50  16  25 W31G47    29.84F
FORT COLLINS   FAIR      34  27  75 NE10      29.90R WCI  26
LONGMONT       FAIR      39  25  57 N15       29.87R
$$

COZ041-046-047-076>085-087-088-141700-
...PIKES PEAK/PALMER DIVIDE AND SOUTHERN FOOTHILLS...

CITY           SKY/WX    TMP DP  RH WIND       PRES   REMARKS
COLO. SPRINGS  PTSUNNY   31  25  78 CALM      29.98F
A. F. ACADEMY  FAIR      28  25  90 NE7       29.95F WCI  20
SCHRIEVER AFB  FAIR      30  26  85 SE5G16    29.99F WCI  26
ELLICOTT       FAIR     N/A N/A N/A W5        29.97F
FALCON         FAIR      30  26  83 SW7       29.99S WCI  23
FORT CARSON    FAIR      32  25  76 VRB1      29.96F
LIMON          FAIR      32  27  81 SW8       29.95F WCI  25
MONUMENT HILL  FAIR      30  21  69 S7        29.95F WCI  23
TRINIDAD       FAIR      40  25  55 SW6       30.00F
$$

COZ042>045-048>051-090-091-141700-
...NORTHEAST COLORADO...

CITY           SKY/WX    TMP DP  RH WIND       PRES   REMARKS
GREELEY ARPT   FAIR      34  25  69 NE8       29.90R WCI  27
AKRON          FAIR      36  23  59 S10       29.91F
BURLINGTON     FAIR      37  27  67 SW10      29.97F
WRAY           PTSUNNY   38  28  69 SW9       29.95S
STERLING       PTSUNNY   32  28  86 SW8       29.93R WCI  25
HOLYOKE        FAIR      37  32  81 SW8       29.92S
FORT MORGAN    FAIR      33  26  74 CALM      29.93R
$$

COZ086-089-092>099-141700-
...SOUTHEAST COLORADO...

CITY           SKY/WX    TMP DP  RH WIND       PRES   REMARKS
PUEBLO         FAIR      35  28  75 N5        29.99F WCI  31
LA JUNTA       FAIR      36  28  73 SW8       30.00F
LAMAR          FAIR      37  29  72 W7        30.01F
SPRINGFIELD      N/A     41  22  46 CALM      30.02S
$$




USA.gov is the U.S. government's official web portal to all federal, state and local government web resources and services.